Time,TemperatureF,DewpointF,PressureIn,WindDirection,WindDirectionDegrees,WindSpeedMPH,WindSpeedGustMPH,Humidity,HourlyPrecipIn,Conditions,Clouds,dailyrainin,SoftwareType,DateUTC
2013-07-10 00:00:00,79.3,75.8,30.13,SW,217,9.0,11.0,89,0.00,,---,0.00,VWS V14.01,2013-07-10 04:00:00,
2013-07-10 00:01:00,79.3,75.8,30.13,SW,224,10.0,11.0,89,0.00,,---,0.00,VWS V14.01,2013-07-10 04:01:00,
2013-07-10 00:02:00,79.3,75.8,30.13,SSW,210,6.0,11.0,89,0.00,,---,0.00,VWS V14.01,2013-07-10 04:02:00,
2013-07-10 00:07:00,79.2,75.7,30.13,SSW,200,7.0,12.0,89,0.00,,---,0.00,VWS V14.01,2013-07-10 04:07:00,
2013-07-10 00:12:00,79.2,75.7,30.13,SSW,207,9.0,13.0,89,0.00,,---,0.00,VWS V14.01,2013-07-10 04:12:00,
2013-07-10 00:17:00,79.1,75.6,30.13,WSW,238,12.0,14.0,89,0.00,,---,0.00,VWS V14.01,2013-07-10 04:17:00,
2013-07-10 00:22:00,79.1,75.6,30.13,SW,219,10.0,14.0,89,0.00,,---,0.00,VWS V14.01,2013-07-10 04:22:00,
2013-07-10 00:27:00,79.1,75.6,30.13,SSW,196,12.0,12.0,89,0.00,,---,0.00,VWS V14.01,2013-07-10 04:27:00,
2013-07-10 00:32:00,79.1,75.6,30.13,SW,226,6.0,12.0,89,0.00,,---,0.00,VWS V14.01,2013-07-10 04:32:00,
2013-07-10 00:37:00,79.0,75.5,30.13,SW,225,5.0,12.0,89,0.00,,---,0.00,VWS V14.01,2013-07-10 04:37:00,
2013-07-10 00:42:00,79.0,75.5,30.13,SW,221,9.0,12.0,89,0.00,,---,0.00,VWS V14.01,2013-07-10 04:42:00,
2013-07-10 00:47:00,79.0,75.5,30.13,SSW,211,9.0,12.0,89,0.00,,---,0.00,VWS V14.01,2013-07-10 04:47:00,
2013-07-10 00:52:00,78.9,75.4,30.13,SW,236,9.0,13.0,89,0.00,,---,0.00,VWS V14.01,2013-07-10 04:52:00,
2013-07-10 00:57:00,78.9,75.4,30.13,SW,225,7.0,10.0,89,0.00,,---,0.00,VWS V14.01,2013-07-10 04:57:00,
2013-07-10 01:02:00,78.9,75.4,30.13,SSW,209,6.0,11.0,89,0.00,,---,0.00,VWS V14.01,2013-07-10 05:02:00,
2013-07-10 01:07:00,78.9,75.4,30.13,SW,234,10.0,12.0,89,0.00,,---,0.00,VWS V14.01,2013-07-10 05:07:00,
2013-07-10 01:12:00,78.9,75.4,30.12,SSW,211,7.0,13.0,89,0.00,,---,0.00,VWS V14.01,2013-07-10 05:12:00,
2013-07-10 01:17:00,78.9,75.4,30.12,SSW,211,4.0,13.0,89,0.00,,---,0.00,VWS V14.01,2013-07-10 05:17:00,
2013-07-10 01:23:00,78.9,75.4,30.12,SSW,212,12.0,13.0,89,0.00,,---,0.00,VWS V14.01,2013-07-10 05:23:00,
2013-07-10 01:28:00,78.8,75.3,30.12,SSW,205,10.0,10.0,89,0.00,,---,0.00,VWS V14.01,2013-07-10 05:28:00,
2013-07-10 01:33:00,78.9,75.4,30.12,SSW,202,7.0,11.0,89,0.00,,---,0.00,VWS V14.01,2013-07-10 05:33:00,
2013-07-10 01:38:00,78.9,75.4,30.12,SSW,213,9.0,11.0,89,0.00,,---,0.00,VWS V14.01,2013-07-10 05:38:00,
2013-07-10 01:43:00,78.9,75.4,30.12,SSW,213,10.0,11.0,89,0.00,,---,0.00,VWS V14.01,2013-07-10 05:43:00,
2013-07-10 01:48:00,78.9,75.4,30.11,SSW,202,5.0,11.0,89,0.00,,---,0.00,VWS V14.01,2013-07-10 05:48:00,
2013-07-10 01:53:00,78.9,75.4,30.11,SSW,200,10.0,12.0,89,0.00,,---,0.00,VWS V14.01,2013-07-10 05:53:00,
2013-07-10 01:58:00,78.9,75.4,30.11,SSW,211,8.0,9.0,89,0.00,,---,0.00,VWS V14.01,2013-07-10 05:58:00,
2013-07-10 02:03:00,78.8,75.3,30.11,SSW,208,7.0,9.0,89,0.00,,---,0.00,VWS V14.01,2013-07-10 06:03:00,
2013-07-10 02:08:00,78.8,75.3,30.11,SSW,200,8.0,13.0,89,0.00,,---,0.00,VWS V14.01,2013-07-10 06:08:00,
2013-07-10 02:13:00,78.8,75.3,30.11,SW,229,9.0,13.0,89,0.00,,---,0.00,VWS V14.01,2013-07-10 06:13:00,
2013-07-10 02:18:00,78.7,75.2,30.11,SW,221,10.0,13.0,89,0.00,,---,0.00,VWS V14.01,2013-07-10 06:18:00,
2013-07-10 02:23:00,78.7,75.2,30.10,SW,220,8.0,13.0,89,0.00,,---,0.00,VWS V14.01,2013-07-10 06:23:00,
2013-07-10 02:28:00,78.7,75.2,30.10,SW,222,5.0,10.0,89,0.00,,---,0.00,VWS V14.01,2013-07-10 06:28:00,
2013-07-10 02:33:00,78.7,75.2,30.10,SSW,200,10.0,11.0,89,0.00,,---,0.00,VWS V14.01,2013-07-10 06:33:00,
2013-07-10 02:38:00,78.7,75.5,30.10,SW,225,6.0,11.0,90,0.00,,---,0.00,VWS V14.01,2013-07-10 06:38:00,
2013-07-10 02:43:00,78.6,75.4,30.10,SW,215,6.0,11.0,90,0.00,,---,0.00,VWS V14.01,2013-07-10 06:43:00,
2013-07-10 02:48:00,78.6,75.4,30.10,SW,224,5.0,11.0,90,0.00,,---,0.00,VWS V14.01,2013-07-10 06:48:00,
2013-07-10 02:53:00,78.6,75.4,30.10,WSW,237,7.0,12.0,90,0.00,,---,0.00,VWS V14.01,2013-07-10 06:53:00,
2013-07-10 02:58:00,78.7,75.5,30.10,SW,228,7.0,7.0,90,0.00,,---,0.00,VWS V14.01,2013-07-10 06:58:00,
2013-07-10 03:03:00,78.6,75.4,30.09,SW,231,4.0,11.0,90,0.00,,---,0.00,VWS V14.01,2013-07-10 07:03:00,
2013-07-10 03:08:00,78.5,75.3,30.09,SW,221,6.0,11.0,90,0.00,,---,0.00,VWS V14.01,2013-07-10 07:08:00,
2013-07-10 03:13:00,78.5,75.3,30.09,SW,219,5.0,11.0,90,0.00,,---,0.00,VWS V14.01,2013-07-10 07:13:00,
2013-07-10 03:18:00,78.4,75.2,30.08,SSW,211,6.0,11.0,90,0.00,,---,0.00,VWS V14.01,2013-07-10 07:18:00,
2013-07-10 03:23:00,78.4,75.2,30.08,SW,229,6.0,11.0,90,0.00,,---,0.00,VWS V14.01,2013-07-10 07:23:00,
2013-07-10 03:28:00,78.4,75.2,30.08,SSW,207,5.0,7.0,90,0.00,,---,0.00,VWS V14.01,2013-07-10 07:28:00,
2013-07-10 03:33:00,78.3,75.1,30.09,SW,225,6.0,9.0,90,0.00,,---,0.00,VWS V14.01,2013-07-10 07:33:00,
2013-07-10 03:38:00,78.3,75.1,30.09,SW,227,4.0,10.0,90,0.00,,---,0.00,VWS V14.01,2013-07-10 07:38:00,
2013-07-10 03:43:00,78.2,75.0,30.09,SW,215,5.0,10.0,90,0.00,,---,0.00,VWS V14.01,2013-07-10 07:43:00,
2013-07-10 03:48:00,78.2,75.0,30.09,SW,228,5.0,10.0,90,0.00,,---,0.00,VWS V14.01,2013-07-10 07:48:00,
2013-07-10 03:53:00,78.2,75.0,30.09,WSW,238,0.0,10.0,90,0.00,,---,0.00,VWS V14.01,2013-07-10 07:53:00,
2013-07-10 03:58:00,78.1,74.9,30.09,SW,222,6.0,6.0,90,0.00,,---,0.00,VWS V14.01,2013-07-10 07:58:00,
2013-07-10 04:03:00,78.1,74.9,30.09,SW,224,4.0,6.0,90,0.00,,---,0.00,VWS V14.01,2013-07-10 08:03:00,
2013-07-10 04:08:00,78.1,74.9,30.09,SW,231,5.0,7.0,90,0.00,,---,0.00,VWS V14.01,2013-07-10 08:08:00,
2013-07-10 04:13:00,78.1,74.9,30.09,WSW,240,6.0,7.0,90,0.00,,---,0.00,VWS V14.01,2013-07-10 08:13:00,
2013-07-10 04:18:00,78.0,74.8,30.10,SW,216,4.0,7.0,90,0.00,,---,0.00,VWS V14.01,2013-07-10 08:18:00,
2013-07-10 04:23:00,77.9,74.7,30.10,SW,217,5.0,7.0,90,0.00,,---,0.00,VWS V14.01,2013-07-10 08:23:00,
2013-07-10 04:28:00,77.9,74.7,30.09,SW,231,4.0,5.0,90,0.00,,---,0.00,VWS V14.01,2013-07-10 08:28:00,
2013-07-10 04:33:00,77.8,75.0,30.09,SW,227,4.0,9.0,91,0.00,,---,0.00,VWS V14.01,2013-07-10 08:33:00,
2013-07-10 04:38:00,77.8,75.0,30.09,SW,225,3.0,9.0,91,0.00,,---,0.00,VWS V14.01,2013-07-10 08:38:00,
2013-07-10 04:43:00,77.8,75.0,30.09,SW,232,6.0,9.0,91,0.00,,---,0.00,VWS V14.01,2013-07-10 08:43:00,
2013-07-10 04:48:00,77.8,75.0,30.09,SW,217,4.0,9.0,91,0.00,,---,0.00,VWS V14.01,2013-07-10 08:48:00,
2013-07-10 04:53:00,77.9,75.1,30.08,SW,214,5.0,9.0,91,0.00,,---,0.00,VWS V14.01,2013-07-10 08:53:00,
2013-07-10 04:58:00,77.9,75.1,30.08,SW,231,4.0,7.0,91,0.00,,---,0.00,VWS V14.01,2013-07-10 08:58:00,
2013-07-10 05:00:00,78.0,75.2,30.08,SSW,200,6.0,7.0,91,0.00,,---,0.00,VWS V14.01,2013-07-10 09:00:00,
2013-07-10 05:05:00,77.9,75.1,30.08,WSW,245,3.0,10.0,91,0.00,,---,0.00,VWS V14.01,2013-07-10 09:05:00,
2013-07-10 05:10:00,77.9,75.1,30.09,SW,219,4.0,10.0,91,0.00,,---,0.00,VWS V14.01,2013-07-10 09:10:00,
2013-07-10 05:15:00,77.9,74.7,30.09,SW,224,6.0,10.0,90,0.00,,---,0.00,VWS V14.01,2013-07-10 09:15:00,
2013-07-10 05:20:00,77.9,74.7,30.09,WSW,254,5.0,10.0,90,0.00,,---,0.00,VWS V14.01,2013-07-10 09:20:00,
2013-07-10 05:25:00,77.8,74.6,30.09,SW,236,4.0,10.0,90,0.00,,---,0.00,VWS V14.01,2013-07-10 09:25:00,
2013-07-10 05:30:00,77.7,74.5,30.09,WSW,244,5.0,7.0,90,0.00,,---,0.00,VWS V14.01,2013-07-10 09:30:00,
2013-07-10 05:35:00,77.7,74.5,30.09,SW,223,6.0,9.0,90,0.00,,---,0.00,VWS V14.01,2013-07-10 09:35:00,
2013-07-10 05:40:00,77.7,74.5,30.09,SSW,209,4.0,11.0,90,0.00,,---,0.00,VWS V14.01,2013-07-10 09:40:00,
2013-07-10 05:45:00,77.7,74.5,30.10,SW,223,4.0,11.0,90,0.00,,---,0.00,VWS V14.01,2013-07-10 09:45:00,
2013-07-10 05:50:00,77.7,74.5,30.09,SW,229,6.0,11.0,90,0.00,,---,0.00,VWS V14.01,2013-07-10 09:50:00,
2013-07-10 05:55:00,77.7,74.5,30.10,WSW,244,3.0,11.0,90,0.00,,---,0.00,VWS V14.01,2013-07-10 09:55:00,
2013-07-10 06:00:00,77.7,74.2,30.10,WSW,237,3.0,6.0,89,0.00,,---,0.00,VWS V14.01,2013-07-10 10:00:00,
2013-07-10 06:05:00,77.7,74.2,30.10,SW,227,4.0,6.0,89,0.00,,---,0.00,VWS V14.01,2013-07-10 10:05:00,
2013-07-10 06:10:00,77.8,74.3,30.10,SW,230,2.0,6.0,89,0.00,,---,0.00,VWS V14.01,2013-07-10 10:10:00,
2013-07-10 06:15:00,77.8,74.3,30.10,SW,229,5.0,6.0,89,0.00,,---,0.00,VWS V14.01,2013-07-10 10:15:00,
2013-07-10 06:20:00,77.8,74.3,30.10,WSW,244,3.0,6.0,89,0.00,,---,0.00,VWS V14.01,2013-07-10 10:20:00,
2013-07-10 06:25:00,77.8,74.3,30.10,WSW,244,4.0,9.0,89,0.00,,---,0.00,VWS V14.01,2013-07-10 10:25:00,
2013-07-10 06:30:00,77.9,74.4,30.10,SW,231,5.0,6.0,89,0.00,,---,0.00,VWS V14.01,2013-07-10 10:30:00,
2013-07-10 06:35:00,78.0,74.5,30.10,WSW,238,4.0,9.0,89,0.00,,---,0.00,VWS V14.01,2013-07-10 10:35:00,
2013-07-10 06:40:00,78.0,74.5,30.10,SW,219,7.0,9.0,89,0.00,,---,0.00,VWS V14.01,2013-07-10 10:40:00,
2013-07-10 06:45:00,78.2,74.7,30.08,SW,223,3.0,10.0,89,0.00,,---,0.00,VWS V14.01,2013-07-10 10:45:00,
2013-07-10 06:50:00,78.3,74.8,30.09,SW,218,4.0,10.0,89,0.00,,---,0.00,VWS V14.01,2013-07-10 10:50:00,
2013-07-10 06:56:00,78.5,75.0,30.09,SW,215,5.0,11.0,89,0.00,,---,0.00,VWS V14.01,2013-07-10 10:56:00,
2013-07-10 07:01:00,78.7,75.2,30.09,SW,218,5.0,11.0,89,0.00,,---,0.00,VWS V14.01,2013-07-10 11:01:00,
2013-07-10 07:06:00,78.7,75.2,30.09,SSW,200,9.0,11.0,89,0.00,,---,0.00,VWS V14.01,2013-07-10 11:06:00,
2013-07-10 07:11:00,78.6,75.1,30.09,WSW,237,7.0,11.0,89,0.00,,---,0.00,VWS V14.01,2013-07-10 11:11:00,
2013-07-10 07:16:00,78.6,75.1,30.09,SW,220,3.0,11.0,89,0.00,,---,0.00,VWS V14.01,2013-07-10 11:16:00,
2013-07-10 07:21:00,78.7,75.5,30.09,SW,217,6.0,11.0,90,0.00,,---,0.00,VWS V14.01,2013-07-10 11:21:00,
2013-07-10 07:26:00,78.9,75.7,30.09,SW,223,5.0,11.0,90,0.00,,---,0.00,VWS V14.01,2013-07-10 11:26:00,
2013-07-10 07:31:00,79.1,75.6,30.09,SSW,211,6.0,10.0,89,0.00,,---,0.00,VWS V14.01,2013-07-10 11:31:00,
2013-07-10 07:36:00,79.3,75.8,30.09,SW,225,6.0,10.0,89,0.00,,---,0.00,VWS V14.01,2013-07-10 11:36:00,
2013-07-10 07:41:00,79.5,76.0,30.09,SW,225,8.0,11.0,89,0.00,,---,0.00,VWS V14.01,2013-07-10 11:41:00,
2013-07-10 07:46:00,79.6,76.1,30.09,SW,222,5.0,11.0,89,0.00,,---,0.00,VWS V14.01,2013-07-10 11:46:00,
2013-07-10 07:51:00,79.6,75.7,30.09,SW,214,7.0,11.0,88,0.00,,---,0.00,VWS V14.01,2013-07-10 11:51:00,
2013-07-10 07:56:00,79.7,75.8,30.10,SSW,194,4.0,11.0,88,0.00,,---,0.00,VWS V14.01,2013-07-10 11:56:00,
2013-07-10 08:01:00,79.7,75.8,30.09,SSW,205,3.0,9.0,88,0.00,,---,0.00,VWS V14.01,2013-07-10 12:01:00,
2013-07-10 08:06:00,79.8,75.9,30.10,SW,214,4.0,9.0,88,0.00,,---,0.00,VWS V14.01,2013-07-10 12:06:00,
2013-07-10 08:11:00,79.7,75.8,30.10,SW,229,5.0,9.0,88,0.00,,---,0.00,VWS V14.01,2013-07-10 12:11:00,
2013-07-10 08:16:00,79.8,75.9,30.10,SW,215,6.0,10.0,88,0.00,,---,0.00,VWS V14.01,2013-07-10 12:16:00,
2013-07-10 08:21:00,79.9,76.0,30.10,SW,232,5.0,10.0,88,0.00,,---,0.00,VWS V14.01,2013-07-10 12:21:00,
2013-07-10 08:26:00,80.0,76.1,30.10,SW,218,10.0,11.0,88,0.00,,---,0.00,VWS V14.01,2013-07-10 12:26:00,
2013-07-10 08:31:00,80.1,75.9,30.10,SW,221,6.0,12.0,87,0.00,,---,0.00,VWS V14.01,2013-07-10 12:31:00,
2013-07-10 08:36:00,80.2,76.0,30.11,SW,228,7.0,12.0,87,0.00,,---,0.00,VWS V14.01,2013-07-10 12:36:00,
2013-07-10 08:41:00,80.3,76.1,30.10,SW,219,10.0,12.0,87,0.00,,---,0.00,VWS V14.01,2013-07-10 12:41:00,
2013-07-10 08:47:00,80.4,76.2,30.11,SW,221,7.0,12.0,87,0.00,,---,0.00,VWS V14.01,2013-07-10 12:47:00,
2013-07-10 08:52:00,80.5,76.3,30.11,SW,229,10.0,12.0,87,0.00,,---,0.00,VWS V14.01,2013-07-10 12:52:00,
2013-07-10 08:57:00,80.6,76.0,30.11,SW,222,12.0,12.0,86,0.00,,---,0.00,VWS V14.01,2013-07-10 12:57:00,
2013-07-10 09:02:00,80.5,75.9,30.11,SW,217,8.0,11.0,86,0.00,,---,0.00,VWS V14.01,2013-07-10 13:02:00,
2013-07-10 09:07:00,80.5,75.9,30.11,SSW,211,9.0,12.0,86,0.00,,---,0.00,VWS V14.01,2013-07-10 13:07:00,
2013-07-10 09:12:00,80.6,76.0,30.11,SW,222,12.0,12.0,86,0.00,,---,0.00,VWS V14.01,2013-07-10 13:12:00,
2013-07-10 09:17:00,80.8,76.2,30.11,SSW,204,5.0,12.0,86,0.00,,---,0.00,VWS V14.01,2013-07-10 13:17:00,
2013-07-10 09:22:00,81.0,76.1,30.11,SW,215,7.0,14.0,85,0.00,,---,0.00,VWS V14.01,2013-07-10 13:22:00,
2013-07-10 09:27:00,81.1,76.2,30.11,SSW,209,6.0,15.0,85,0.00,,---,0.00,VWS V14.01,2013-07-10 13:27:00,
2013-07-10 09:32:00,80.9,75.6,30.11,WSW,238,4.0,12.0,84,0.00,,---,0.00,VWS V14.01,2013-07-10 13:32:00,
2013-07-10 09:37:00,80.9,76.0,30.11,SSW,207,3.0,12.0,85,0.00,,---,0.00,VWS V14.01,2013-07-10 13:37:00,
2013-07-10 09:42:00,80.8,75.9,30.11,SSW,200,7.0,12.0,85,0.00,,---,0.00,VWS V14.01,2013-07-10 13:42:00,
2013-07-10 09:47:00,81.1,76.5,30.11,SSW,207,10.0,12.0,86,0.00,,---,0.00,VWS V14.01,2013-07-10 13:47:00,
2013-07-10 09:52:00,81.5,76.9,30.11,SSW,209,9.0,12.0,86,0.00,,---,0.00,VWS V14.01,2013-07-10 13:52:00,
2013-07-10 09:57:00,81.9,76.9,30.11,SSW,213,8.0,13.0,85,0.00,,---,0.00,VWS V14.01,2013-07-10 13:57:00,
2013-07-10 10:02:00,81.9,76.6,30.11,SSW,206,8.0,13.0,84,0.00,,---,0.00,VWS V14.01,2013-07-10 14:02:00,
2013-07-10 10:07:00,81.9,76.6,30.11,South,185,7.0,13.0,84,0.00,,---,0.00,VWS V14.01,2013-07-10 14:07:00,
2013-07-10 10:12:00,81.8,76.5,30.11,SSW,195,9.0,13.0,84,0.00,,---,0.00,VWS V14.01,2013-07-10 14:12:00,
2013-07-10 10:17:00,82.0,76.7,30.11,SSW,208,9.0,13.0,84,0.00,,---,0.00,VWS V14.01,2013-07-10 14:17:00,
2013-07-10 10:22:00,82.2,76.9,30.11,SSW,209,14.0,14.0,84,0.00,,---,0.00,VWS V14.01,2013-07-10 14:22:00,
2013-07-10 10:27:00,82.5,77.2,30.11,SSW,202,11.0,14.0,84,0.00,,---,0.00,VWS V14.01,2013-07-10 14:27:00,
2013-07-10 10:32:00,82.7,77.0,30.11,SSW,205,11.0,16.0,83,0.00,,---,0.00,VWS V14.01,2013-07-10 14:32:00,
2013-07-10 10:37:00,82.7,77.0,30.11,SSW,200,9.0,16.0,83,0.00,,---,0.00,VWS V14.01,2013-07-10 14:37:00,
2013-07-10 10:42:00,82.9,77.2,30.11,SW,217,13.0,16.0,83,0.00,,---,0.00,VWS V14.01,2013-07-10 14:42:00,
2013-07-10 10:47:00,83.3,77.2,30.11,South,183,7.0,17.0,82,0.00,,---,0.00,VWS V14.01,2013-07-10 14:47:00,
2013-07-10 10:52:00,83.4,77.3,30.11,SSW,202,10.0,17.0,82,0.00,,---,0.00,VWS V14.01,2013-07-10 14:52:00,
2013-07-10 10:57:00,83.3,77.2,30.11,SW,221,14.0,16.0,82,0.00,,---,0.00,VWS V14.01,2013-07-10 14:57:00,
2013-07-10 11:02:00,83.3,77.2,30.11,SSW,207,10.0,17.0,82,0.00,,---,0.00,VWS V14.01,2013-07-10 15:02:00,
2013-07-10 11:07:00,83.3,76.9,30.11,SSW,202,14.0,17.0,81,0.00,,---,0.00,VWS V14.01,2013-07-10 15:07:00,
2013-07-10 11:13:00,83.5,77.4,30.11,SSW,208,16.0,17.0,82,0.00,,---,0.00,VWS V14.01,2013-07-10 15:13:00,
2013-07-10 11:18:00,83.7,77.2,30.10,SSW,196,17.0,19.0,81,0.00,,---,0.00,VWS V14.01,2013-07-10 15:18:00,
2013-07-10 11:23:00,83.8,77.0,30.10,SW,232,16.0,20.0,80,0.00,,---,0.00,VWS V14.01,2013-07-10 15:23:00,
2013-07-10 11:28:00,83.8,77.0,30.10,SSW,205,10.0,16.0,80,0.00,,---,0.00,VWS V14.01,2013-07-10 15:28:00,
2013-07-10 11:33:00,83.9,76.7,30.10,SSW,209,17.0,20.0,79,0.00,,---,0.00,VWS V14.01,2013-07-10 15:33:00,
2013-07-10 11:38:00,83.6,76.4,30.11,SSW,192,15.0,20.0,79,0.00,,---,0.00,VWS V14.01,2013-07-10 15:38:00,
2013-07-10 11:43:00,83.3,76.1,30.10,SSW,199,15.0,20.0,79,0.00,,---,0.00,VWS V14.01,2013-07-10 15:43:00,
2013-07-10 11:48:00,83.4,76.6,30.10,SSW,202,19.0,20.0,80,0.00,,---,0.00,VWS V14.01,2013-07-10 15:48:00,
2013-07-10 11:53:00,83.4,76.6,30.10,SSW,211,12.0,20.0,80,0.00,,---,0.00,VWS V14.01,2013-07-10 15:53:00,
2013-07-10 11:58:00,83.2,76.4,30.10,SW,219,9.0,15.0,80,0.00,,---,0.00,VWS V14.01,2013-07-10 15:58:00,
2013-07-10 12:03:00,83.2,76.4,30.10,SSW,201,16.0,17.0,80,0.00,,---,0.00,VWS V14.01,2013-07-10 16:03:00,
2013-07-10 12:08:00,83.4,76.6,30.09,SW,231,14.0,18.0,80,0.00,,---,0.00,VWS V14.01,2013-07-10 16:08:00,
2013-07-10 12:13:00,83.6,76.8,30.09,South,191,11.0,19.0,80,0.00,,---,0.00,VWS V14.01,2013-07-10 16:13:00,
2013-07-10 12:18:00,84.1,77.3,30.09,SW,215,14.0,19.0,80,0.00,,---,0.00,VWS V14.01,2013-07-10 16:18:00,
2013-07-10 12:23:00,84.4,77.2,30.09,SSW,202,15.0,19.0,79,0.00,,---,0.00,VWS V14.01,2013-07-10 16:23:00,
2013-07-10 12:28:00,84.6,77.4,30.08,SSW,207,11.0,17.0,79,0.00,,---,0.00,VWS V14.01,2013-07-10 16:28:00,
2013-07-10 12:33:00,84.6,77.0,30.09,SW,223,15.0,18.0,78,0.00,,---,0.00,VWS V14.01,2013-07-10 16:33:00,
2013-07-10 12:38:00,84.6,77.0,30.08,SSW,193,10.0,18.0,78,0.00,,---,0.00,VWS V14.01,2013-07-10 16:38:00,
2013-07-10 12:43:00,84.8,77.2,30.08,SSW,213,15.0,18.0,78,0.00,,---,0.00,VWS V14.01,2013-07-10 16:43:00,
2013-07-10 12:48:00,85.0,77.0,30.08,SSW,213,10.0,18.0,77,0.00,,---,0.00,VWS V14.01,2013-07-10 16:48:00,
2013-07-10 12:53:00,84.9,76.9,30.08,SSW,202,11.0,19.0,77,0.00,,---,0.00,VWS V14.01,2013-07-10 16:53:00,
2013-07-10 12:58:00,85.0,77.4,30.08,SW,217,14.0,16.0,78,0.00,,---,0.00,VWS V14.01,2013-07-10 16:58:00,
2013-07-10 13:03:00,84.9,76.9,30.08,SSW,208,15.0,17.0,77,0.00,,---,0.00,VWS V14.01,2013-07-10 17:03:00,
2013-07-10 13:08:00,85.0,77.0,30.08,SSW,192,8.0,17.0,77,0.00,,---,0.00,VWS V14.01,2013-07-10 17:08:00,
2013-07-10 13:13:00,85.0,77.0,30.08,SW,220,12.0,17.0,77,0.00,,---,0.00,VWS V14.01,2013-07-10 17:13:00,
2013-07-10 13:18:00,84.8,76.8,30.08,SSW,198,7.0,17.0,77,0.00,,---,0.00,VWS V14.01,2013-07-10 17:18:00,
2013-07-10 13:23:00,84.4,76.4,30.08,SSW,204,13.0,17.0,77,0.00,,---,0.00,VWS V14.01,2013-07-10 17:23:00,
2013-07-10 13:28:00,84.1,76.1,30.08,SSW,202,9.0,17.0,77,0.00,,---,0.00,VWS V14.01,2013-07-10 17:28:00,
2013-07-10 13:33:00,83.9,76.3,30.08,SSW,213,9.0,17.0,78,0.00,,---,0.00,VWS V14.01,2013-07-10 17:33:00,
2013-07-10 13:38:00,83.4,75.8,30.08,SSW,206,11.0,17.0,78,0.00,,---,0.00,VWS V14.01,2013-07-10 17:38:00,
2013-07-10 13:43:00,83.2,76.0,30.07,SSW,202,14.0,18.0,79,0.00,,---,0.00,VWS V14.01,2013-07-10 17:43:00,
2013-07-10 13:48:00,82.9,75.7,30.07,SSW,213,9.0,18.0,79,0.00,,---,0.00,VWS V14.01,2013-07-10 17:48:00,
2013-07-10 13:53:00,82.6,75.8,30.07,SSW,197,12.0,18.0,80,0.00,,---,0.00,VWS V14.01,2013-07-10 17:53:00,
2013-07-10 13:59:00,82.5,75.7,30.08,SSW,200,12.0,18.0,80,0.00,,---,0.00,VWS V14.01,2013-07-10 17:59:00,
2013-07-10 14:04:00,82.4,76.0,30.07,SSW,213,10.0,18.0,81,0.00,,---,0.00,VWS V14.01,2013-07-10 18:04:00,
2013-07-10 14:09:00,82.3,75.9,30.07,SSW,203,10.0,18.0,81,0.00,,---,0.00,VWS V14.01,2013-07-10 18:09:00,
2013-07-10 14:14:00,82.4,76.0,30.06,South,188,14.0,18.0,81,0.00,,---,0.00,VWS V14.01,2013-07-10 18:14:00,
2013-07-10 14:19:00,82.4,75.6,30.06,SSW,194,16.0,20.0,80,0.00,,---,0.00,VWS V14.01,2013-07-10 18:19:00,
2013-07-10 14:24:00,82.5,75.7,30.06,SSW,200,15.0,20.0,80,0.00,,---,0.00,VWS V14.01,2013-07-10 18:24:00,
2013-07-10 14:29:00,82.6,75.8,30.06,SSW,196,12.0,18.0,80,0.00,,---,0.00,VWS V14.01,2013-07-10 18:29:00,
2013-07-10 14:34:00,82.5,75.7,30.06,SSW,211,18.0,21.0,80,0.00,,---,0.00,VWS V14.01,2013-07-10 18:34:00,
2013-07-10 14:39:00,82.4,75.6,30.05,SSW,205,13.0,22.0,80,0.00,,---,0.00,VWS V14.01,2013-07-10 18:39:00,
2013-07-10 14:44:00,82.3,75.5,30.05,SSW,194,12.0,22.0,80,0.00,,---,0.00,VWS V14.01,2013-07-10 18:44:00,
2013-07-10 14:49:00,82.3,75.5,30.05,SSW,206,17.0,22.0,80,0.00,,---,0.00,VWS V14.01,2013-07-10 18:49:00,
2013-07-10 14:54:00,82.3,75.5,30.05,SSW,203,14.0,22.0,80,0.00,,---,0.00,VWS V14.01,2013-07-10 18:54:00,
2013-07-10 14:59:00,82.5,75.7,30.04,SSW,205,18.0,22.0,80,0.00,,---,0.00,VWS V14.01,2013-07-10 18:59:00,
2013-07-10 15:04:00,82.9,76.1,30.04,SSW,211,22.0,24.0,80,0.00,,---,0.00,VWS V14.01,2013-07-10 19:04:00,
2013-07-10 15:09:00,83.5,76.3,30.04,SSW,211,14.0,24.0,79,0.00,,---,0.00,VWS V14.01,2013-07-10 19:09:00,
2013-07-10 15:14:00,83.8,76.6,30.04,SSW,199,22.0,25.0,79,0.00,,---,0.00,VWS V14.01,2013-07-10 19:14:00,
2013-07-10 15:19:00,84.1,76.9,30.04,SSW,198,21.0,25.0,79,0.00,,---,0.00,VWS V14.01,2013-07-10 19:19:00,
2013-07-10 15:24:00,84.3,77.1,30.04,SSW,202,21.0,25.0,79,0.00,,---,0.00,VWS V14.01,2013-07-10 19:24:00,
2013-07-10 15:29:00,84.4,76.8,30.03,South,191,18.0,24.0,78,0.00,,---,0.00,VWS V14.01,2013-07-10 19:29:00,
2013-07-10 15:34:00,84.4,76.8,30.03,SSW,204,21.0,26.0,78,0.00,,---,0.00,VWS V14.01,2013-07-10 19:34:00,
2013-07-10 15:39:00,84.3,76.7,30.03,SSW,205,20.0,26.0,78,0.00,,---,0.00,VWS V14.01,2013-07-10 19:39:00,
2013-07-10 15:44:00,84.3,76.7,30.03,South,182,17.0,26.0,78,0.00,,---,0.00,VWS V14.01,2013-07-10 19:44:00,
2013-07-10 15:49:00,84.1,76.5,30.03,SSW,211,13.0,26.0,78,0.00,,---,0.00,VWS V14.01,2013-07-10 19:49:00,
2013-07-10 15:54:00,84.0,76.4,30.03,SSW,210,18.0,26.0,78,0.00,,---,0.00,VWS V14.01,2013-07-10 19:54:00,
2013-07-10 16:00:00,84.2,77.0,30.02,South,187,14.0,25.0,79,0.00,,---,0.00,VWS V14.01,2013-07-10 20:00:00,
2013-07-10 16:05:00,84.1,76.9,30.03,South,184,17.0,25.0,79,0.00,,---,0.00,VWS V14.01,2013-07-10 20:05:00,
2013-07-10 16:10:00,84.0,76.8,30.03,SW,218,15.0,25.0,79,0.00,,---,0.00,VWS V14.01,2013-07-10 20:10:00,
2013-07-10 16:15:00,84.0,76.8,30.02,South,184,12.0,25.0,79,0.00,,---,0.00,VWS V14.01,2013-07-10 20:15:00,
2013-07-10 16:20:00,84.0,76.8,30.02,SW,227,12.0,25.0,79,0.00,,---,0.00,VWS V14.01,2013-07-10 20:20:00,
2013-07-10 16:25:00,84.1,76.9,30.02,SSW,205,13.0,25.0,79,0.00,,---,0.00,VWS V14.01,2013-07-10 20:25:00,
2013-07-10 16:30:00,84.0,77.2,30.02,SSW,202,12.0,20.0,80,0.00,,---,0.00,VWS V14.01,2013-07-10 20:30:00,
2013-07-10 16:35:00,84.1,76.9,30.02,SW,217,21.0,21.0,79,0.00,,---,0.00,VWS V14.01,2013-07-10 20:35:00,
2013-07-10 16:40:00,84.2,77.0,30.02,SSW,203,11.0,21.0,79,0.00,,---,0.00,VWS V14.01,2013-07-10 20:40:00,
2013-07-10 16:45:00,84.3,77.1,30.02,SW,221,13.0,21.0,79,0.00,,---,0.00,VWS V14.01,2013-07-10 20:45:00,
2013-07-10 16:50:00,84.3,77.1,30.02,SSW,204,12.0,21.0,79,0.00,,---,0.00,VWS V14.01,2013-07-10 20:50:00,
2013-07-10 16:55:00,84.3,76.7,30.02,SSW,211,15.0,21.0,78,0.00,,---,0.00,VWS V14.01,2013-07-10 20:55:00,
2013-07-10 17:00:00,84.1,76.9,30.02,SSW,209,10.0,21.0,79,0.00,,---,0.00,VWS V14.01,2013-07-10 21:00:00,
2013-07-10 17:05:00,84.1,77.3,30.02,SSW,209,11.0,21.0,80,0.00,,---,0.00,VWS V14.01,2013-07-10 21:05:00,
2013-07-10 17:10:00,84.0,77.2,30.01,SW,214,10.0,21.0,80,0.00,,---,0.00,VWS V14.01,2013-07-10 21:10:00,
2013-07-10 17:15:00,83.9,77.1,30.01,SSW,205,16.0,21.0,80,0.00,,---,0.00,VWS V14.01,2013-07-10 21:15:00,
2013-07-10 17:20:00,83.5,76.7,30.02,SSW,211,11.0,21.0,80,0.00,,---,0.00,VWS V14.01,2013-07-10 21:20:00,
2013-07-10 17:25:00,83.3,76.9,30.01,SSW,209,13.0,21.0,81,0.00,,---,0.00,VWS V14.01,2013-07-10 21:25:00,
2013-07-10 17:30:00,83.2,76.8,30.01,SSW,201,14.0,17.0,81,0.00,,---,0.00,VWS V14.01,2013-07-10 21:30:00,
2013-07-10 17:35:00,83.7,77.6,30.01,South,177,12.0,17.0,82,0.00,,---,0.00,VWS V14.01,2013-07-10 21:35:00,
2013-07-10 17:40:00,84.1,77.6,30.01,SSW,204,6.0,17.0,81,0.00,,---,0.00,VWS V14.01,2013-07-10 21:40:00,
2013-07-10 17:46:00,83.7,77.2,30.01,WSW,241,10.0,17.0,81,0.00,,---,0.00,VWS V14.01,2013-07-10 21:46:00,
2013-07-10 17:51:00,83.1,76.7,30.01,SSW,207,17.0,17.0,81,0.00,,---,0.00,VWS V14.01,2013-07-10 21:51:00,
2013-07-10 17:56:00,83.0,76.9,30.01,SSW,207,14.0,17.0,82,0.00,,---,0.00,VWS V14.01,2013-07-10 21:56:00,
2013-07-10 18:01:00,83.1,77.0,30.00,SSW,202,12.0,19.0,82,0.00,,---,0.00,VWS V14.01,2013-07-10 22:01:00,
2013-07-10 18:06:00,83.4,77.3,30.00,SSW,212,12.0,21.0,82,0.00,,---,0.00,VWS V14.01,2013-07-10 22:06:00,
2013-07-10 18:11:00,83.1,76.7,30.00,SSW,194,17.0,22.0,81,0.00,,---,0.00,VWS V14.01,2013-07-10 22:11:00,
2013-07-10 18:16:00,83.2,76.8,30.00,SSW,208,14.0,22.0,81,0.00,,---,0.00,VWS V14.01,2013-07-10 22:16:00,
2013-07-10 18:21:00,83.4,77.0,30.00,SW,223,9.0,22.0,81,0.00,,---,0.00,VWS V14.01,2013-07-10 22:21:00,
2013-07-10 18:26:00,83.3,76.5,30.00,SSW,211,6.0,22.0,80,0.00,,---,0.00,VWS V14.01,2013-07-10 22:26:00,
2013-07-10 18:31:00,82.8,76.4,30.00,SW,215,16.0,18.0,81,0.00,,---,0.00,VWS V14.01,2013-07-10 22:31:00,
2013-07-10 18:36:00,82.4,76.0,30.01,SW,221,9.0,20.0,81,0.00,,---,0.00,VWS V14.01,2013-07-10 22:36:00,
2013-07-10 18:41:00,82.2,76.2,30.00,SW,217,14.0,22.0,82,0.00,,---,0.00,VWS V14.01,2013-07-10 22:41:00,
2013-07-10 18:46:00,82.4,76.4,30.00,SW,221,12.0,22.0,82,0.00,,---,0.00,VWS V14.01,2013-07-10 22:46:00,
2013-07-10 18:51:00,82.6,76.6,30.00,SW,220,9.0,22.0,82,0.00,,---,0.00,VWS V14.01,2013-07-10 22:51:00,
2013-07-10 18:56:00,82.5,76.4,30.00,SSW,211,7.0,22.0,82,0.00,,---,0.00,VWS V14.01,2013-07-10 22:56:00,
2013-07-10 19:01:00,82.1,76.1,30.00,SW,217,11.0,21.0,82,0.00,,---,0.00,VWS V14.01,2013-07-10 23:01:00,
2013-07-10 19:06:00,81.8,76.1,30.00,SW,227,10.0,21.0,83,0.00,,---,0.00,VWS V14.01,2013-07-10 23:06:00,
2013-07-10 19:11:00,81.5,75.8,30.00,SSW,198,12.0,21.0,83,0.00,,---,0.00,VWS V14.01,2013-07-10 23:11:00,
2013-07-10 19:16:00,81.3,75.7,30.00,SW,227,15.0,21.0,83,0.00,,---,0.00,VWS V14.01,2013-07-10 23:16:00,
2013-07-10 19:21:00,81.5,75.8,30.00,WSW,240,13.0,22.0,83,0.00,,---,0.00,VWS V14.01,2013-07-10 23:21:00,
2013-07-10 19:26:00,81.6,76.3,30.00,SSW,198,10.0,22.0,84,0.00,,---,0.00,VWS V14.01,2013-07-10 23:26:00,
2013-07-10 19:32:00,81.5,76.2,30.00,SSW,194,12.0,22.0,84,0.00,,---,0.00,VWS V14.01,2013-07-10 23:32:00,
2013-07-10 19:37:00,81.4,76.5,30.00,South,186,13.0,22.0,85,0.00,,---,0.00,VWS V14.01,2013-07-10 23:37:00,
2013-07-10 19:42:00,81.0,75.7,30.00,SW,216,13.0,22.0,84,0.00,,---,0.00,VWS V14.01,2013-07-10 23:42:00,
2013-07-10 19:47:00,80.9,75.6,30.00,WSW,242,11.0,22.0,84,0.00,,---,0.00,VWS V14.01,2013-07-10 23:47:00,
2013-07-10 19:52:00,80.8,75.5,30.00,SW,215,12.0,22.0,84,0.00,,---,0.00,VWS V14.01,2013-07-10 23:52:00,
2013-07-10 19:57:00,80.8,75.9,30.00,SW,217,15.0,15.0,85,0.00,,---,0.00,VWS V14.01,2013-07-10 23:57:00,
2013-07-10 20:02:00,80.7,75.8,30.00,WSW,242,13.0,18.0,85,0.00,,---,0.00,VWS V14.01,2013-07-11 00:02:00,
2013-07-10 20:07:00,80.4,75.5,30.00,SW,217,15.0,18.0,85,0.00,,---,0.00,VWS V14.01,2013-07-11 00:07:00,
2013-07-10 20:12:00,80.2,75.3,30.00,SSW,202,11.0,18.0,85,0.00,,---,0.00,VWS V14.01,2013-07-11 00:12:00,
2013-07-10 20:17:00,80.1,75.2,30.00,SSW,202,10.0,18.0,85,0.00,,---,0.00,VWS V14.01,2013-07-11 00:17:00,
2013-07-10 20:22:00,80.0,75.4,30.00,SW,230,10.0,18.0,86,0.00,,---,0.00,VWS V14.01,2013-07-11 00:22:00,
2013-07-10 20:27:00,80.0,75.4,30.00,SW,228,5.0,6.0,86,0.00,,---,0.00,VWS V14.01,2013-07-11 00:27:00,
2013-07-10 20:33:00,79.9,75.3,30.00,WSW,239,5.0,11.0,86,0.00,,---,0.00,VWS V14.01,2013-07-11 00:33:00,
2013-07-10 20:38:00,79.8,75.2,30.00,WSW,237,4.0,11.0,86,0.00,,---,0.00,VWS V14.01,2013-07-11 00:38:00,
2013-07-10 20:43:00,79.8,75.6,30.00,SW,232,7.0,11.0,87,0.00,,---,0.00,VWS V14.01,2013-07-11 00:43:00,
2013-07-10 20:48:00,79.7,75.5,29.99,SW,234,7.0,11.0,87,0.00,,---,0.00,VWS V14.01,2013-07-11 00:48:00,
2013-07-10 20:53:00,79.7,75.5,30.00,SW,221,7.0,11.0,87,0.00,,---,0.00,VWS V14.01,2013-07-11 00:53:00,
2013-07-10 20:58:00,79.6,75.4,30.00,SW,219,9.0,10.0,87,0.00,,---,0.00,VWS V14.01,2013-07-11 00:58:00,
2013-07-10 21:03:00,79.6,75.4,30.00,SSW,212,9.0,12.0,87,0.00,,---,0.00,VWS V14.01,2013-07-11 01:03:00,
2013-07-10 21:08:00,79.5,75.3,30.00,WSW,241,9.0,12.0,87,0.00,,---,0.00,VWS V14.01,2013-07-11 01:08:00,
2013-07-10 21:13:00,79.4,75.2,30.00,SSW,213,5.0,12.0,87,0.00,,---,0.00,VWS V14.01,2013-07-11 01:13:00,
2013-07-10 21:18:00,79.5,75.3,30.00,SSW,210,6.0,12.0,87,0.00,,---,0.00,VWS V14.01,2013-07-11 01:18:00,
2013-07-10 21:23:00,79.5,75.3,30.01,SW,214,6.0,12.0,87,0.00,,---,0.00,VWS V14.01,2013-07-11 01:23:00,
2013-07-10 21:28:00,79.5,75.6,30.01,SSW,210,7.0,9.0,88,0.00,,---,0.00,VWS V14.01,2013-07-11 01:28:00,
2013-07-10 21:33:00,79.5,75.6,30.01,SSW,208,8.0,12.0,88,0.00,,---,0.00,VWS V14.01,2013-07-11 01:33:00,
2013-07-10 21:38:00,79.6,75.7,30.01,SW,215,10.0,12.0,88,0.00,,---,0.00,VWS V14.01,2013-07-11 01:38:00,
2013-07-10 21:43:00,79.5,75.6,30.01,SSW,203,11.0,13.0,88,0.00,,---,0.00,VWS V14.01,2013-07-11 01:43:00,
2013-07-10 21:48:00,79.5,76.0,30.01,SW,215,10.0,14.0,89,0.00,,---,0.00,VWS V14.01,2013-07-11 01:48:00,
2013-07-10 21:53:00,79.4,75.9,30.01,SSW,206,10.0,17.0,89,0.00,,---,0.00,VWS V14.01,2013-07-11 01:53:00,
2013-07-10 21:58:00,79.4,75.5,30.01,SW,217,10.0,15.0,88,0.00,,---,0.00,VWS V14.01,2013-07-11 01:58:00,
2013-07-10 22:03:00,79.3,75.4,30.02,SW,221,14.0,19.0,88,0.00,,---,0.00,VWS V14.01,2013-07-11 02:03:00,
2013-07-10 22:08:00,79.3,75.1,30.02,South,180,16.0,20.0,87,0.00,,---,0.00,VWS V14.01,2013-07-11 02:08:00,
2013-07-10 22:13:00,79.5,75.3,30.02,SSW,202,18.0,20.0,87,0.00,,---,0.00,VWS V14.01,2013-07-11 02:13:00,
2013-07-10 22:18:00,79.5,74.9,30.02,SW,215,15.0,20.0,86,0.00,,---,0.00,VWS V14.01,2013-07-11 02:18:00,
2013-07-10 22:23:00,79.6,75.1,30.02,SW,221,8.0,20.0,86,0.00,,---,0.00,VWS V14.01,2013-07-11 02:23:00,
2013-07-10 22:29:00,79.8,75.2,30.02,SW,219,11.0,15.0,86,0.00,,---,0.00,VWS V14.01,2013-07-11 02:29:00,
2013-07-10 22:34:00,79.9,75.7,30.02,SSW,206,12.0,17.0,87,0.00,,---,0.00,VWS V14.01,2013-07-11 02:34:00,
2013-07-10 22:39:00,79.7,75.5,30.02,SSW,208,16.0,17.0,87,0.00,,---,0.00,VWS V14.01,2013-07-11 02:39:00,
2013-07-10 22:44:00,79.5,75.3,30.02,SW,221,15.0,17.0,87,0.00,,---,0.00,VWS V14.01,2013-07-11 02:44:00,
2013-07-10 22:49:00,79.5,75.3,30.02,SW,214,7.0,19.0,87,0.00,,---,0.00,VWS V14.01,2013-07-11 02:49:00,
2013-07-10 22:54:00,79.5,75.6,30.02,SSW,213,8.0,19.0,88,0.00,,---,0.00,VWS V14.01,2013-07-11 02:54:00,
2013-07-10 22:59:00,79.4,75.5,30.02,SW,223,10.0,15.0,88,0.00,,---,0.00,VWS V14.01,2013-07-11 02:59:00,
2013-07-10 23:04:00,79.4,75.5,30.02,SW,228,8.0,15.0,88,0.00,,---,0.00,VWS V14.01,2013-07-11 03:04:00,
2013-07-10 23:09:00,79.4,75.5,30.02,SSW,211,10.0,15.0,88,0.00,,---,0.00,VWS V14.01,2013-07-11 03:09:00,
2013-07-10 23:14:00,79.4,75.5,30.01,SSW,196,15.0,18.0,88,0.00,,---,0.00,VWS V14.01,2013-07-11 03:14:00,
2013-07-10 23:19:00,79.4,75.5,30.01,SSW,212,15.0,20.0,88,0.00,,---,0.00,VWS V14.01,2013-07-11 03:19:00,
2013-07-10 23:24:00,79.3,75.4,30.01,South,184,24.0,25.0,88,0.00,,---,0.00,VWS V14.01,2013-07-11 03:24:00,
2013-07-10 23:29:00,78.9,74.7,30.01,SSW,211,26.0,28.0,87,0.00,,---,0.00,VWS V14.01,2013-07-11 03:29:00,
2013-07-10 23:34:00,78.5,74.3,30.01,SSW,201,22.0,28.0,87,0.00,,---,0.00,VWS V14.01,2013-07-11 03:34:00,
2013-07-10 23:40:00,78.2,74.0,30.01,SW,220,19.0,28.0,87,0.00,,---,0.00,VWS V14.01,2013-07-11 03:40:00,
2013-07-10 23:45:00,78.2,74.0,30.01,SSW,212,13.0,28.0,87,0.00,,---,0.00,VWS V14.01,2013-07-11 03:45:00,
2013-07-10 23:50:00,78.3,74.5,30.01,SSW,197,17.0,28.0,88,0.00,,---,0.00,VWS V14.01,2013-07-11 03:50:00,
2013-07-10 23:55:00,78.5,75.0,30.01,SW,219,11.0,28.0,89,0.00,,---,0.00,VWS V14.01,2013-07-11 03:55:00,